"Sample Date","Sample Time","Sample Value","Units","Flow Rate","Sample Interval","Number Channels","Micron Size 0","Counts/Channel 0","Micron Size 1","Counts/Channel 1","Micron Size 2","Counts/Channel 2","Micron Size 3","Counts/Channel 3","Micron Size 4","Counts/Channel 4","Micron Size 5","Counts/Channel 5","Micron Size 6","Counts/Channel 6","Micron Size 7","Counts/Channel 7","Micron Size 8","Counts/Channel 8","Micron Size 9","Counts/Channel 9","Micron Size 10","Counts/Channel 10","Micron Size 11","Counts/Channel 11","Micron Size 12","Counts/Channel 12","Micron Size 13","Counts/Channel 13","Micron Size 14","Counts/Channel 14","Micron Size 15","Counts/Channel 15","Micron Size 16","Counts/Channel 16","Micron Size 17","Counts/Channel 17","Micron Size 18","Counts/Channel 18","Micron Size 19","Counts/Channel 19","Micron Size 20","Counts/Channel 20","Micron Size 21","Counts/Channel 21","Micron Size 22","Counts/Channel 22","Micron Size 23","Counts/Channel 23","Micron Size 24","Counts/Channel 24","Micron Size 25","Counts/Channel 25","Micron Size 26","Counts/Channel 26","Micron Size 27","Counts/Channel 27","Micron Size 28","Counts/Channel 28","Micron Size 29","Counts/Channel 29","Micron Size 30","Counts/Channel 30","Micron Size 31","Counts/Channel 31"
"04/05/08","19:00:00",3660.000,"cc",28307.322,6.00,6,0.100,2899.000,0.200,484.000,0.300,153.000,0.500,104.000,1.000,20.000,5.000,0
"04/05/08","19:00:06",3880.000,"cc",28350.301,6.00,6,0.100,3040.000,0.200,516.000,0.300,177.000,0.500,121.000,1.000,26.000,5.000,0
"04/05/08","19:00:12",3796.000,"cc",28336.260,6.00,6,0.100,2902.000,0.200,547.000,0.300,192.000,0.500,128.000,1.000,27.000,5.000,0
"04/05/08","19:00:18",3666.000,"cc",28343.082,6.00,6,0.100,2825.000,0.200,547.000,0.300,170.000,0.500,110.000,1.000,14.000,5.000,0
"04/05/08","19:00:24",3729.000,"cc",28334.590,6.00,6,0.100,2854.000,0.200,528.000,0.300,206.000,0.500,120.000,1.000,21.000,5.000,0
"04/05/08","19:00:30",3863.000,"cc",28283.041,6.00,6,0.100,2983.000,0.200,539.000,0.300,210.000,0.500,109.000,1.000,22.000,5.000,0
"04/05/08","19:00:36",3902.000,"cc",28286.912,6.00,6,0.100,3098.000,0.200,505.000,0.300,174.000,0.500,109.000,1.000,16.000,5.000,0
"04/05/08","19:00:42",3830.000,"cc",28290.592,6.00,6,0.100,3035.000,0.200,480.000,0.300,191.000,0.500,108.000,1.000,16.000,5.000,0
"04/05/08","19:00:48",3816.000,"cc",28332.109,6.00,6,0.100,2965.000,0.200,522.000,0.300,190.000,0.500,124.000,1.000,15.000,5.000,0
"04/05/08","19:00:54",3872.000,"cc",28336.924,6.00,6,0.100,3034.000,0.200,526.000,0.300,179.000,0.500,119.000,1.000,14.000,5.000,0
"04/05/08","19:01:00",4217.000,"cc",28318.190,6.00,6,0.100,3349.000,0.200,560.000,0.300,181.000,0.500,110.000,1.000,17.000,5.000,0
"04/05/08","19:01:06",4134.000,"cc",28336.356,6.00,6,0.100,3239.000,0.200,562.000,0.300,192.000,0.500,118.000,1.000,23.000,5.000,0
"04/05/08","19:01:12",3971.000,"cc",28311.742,6.00,6,0.100,3164.000,0.200,523.000,0.300,158.000,0.500,101.000,1.000,25.000,5.000,0
"04/05/08","19:01:18",3822.000,"cc",28265.506,6.00,6,0.100,3010.000,0.200,539.000,0.300,162.000,0.500,94.000,1.000,17.000,5.000,0
"04/05/08","19:01:24",3849.000,"cc",28353.912,6.00,6,0.100,3044.000,0.200,517.000,0.300,162.000,0.500,112.000,1.000,13.000,5.000,1.000
"04/05/08","19:01:30",3766.000,"cc",28349.637,6.00,6,0.100,2951.000,0.200,529.000,0.300,183.000,0.500,92.000,1.000,11.000,5.000,0
"04/05/08","19:01:36",3661.000,"cc",28249.391,6.00,6,0.100,2869.000,0.200,488.000,0.300,163.000,0.500,127.000,1.000,14.000,5.000,0
"04/05/08","19:01:42",3685.000,"cc",28292.807,6.00,6,0.100,2854.000,0.200,526.000,0.300,171.000,0.500,104.000,1.000,30.000,5.000,0
"04/05/08","19:01:48",3805.000,"cc",28331.596,6.00,6,0.100,2950.000,0.200,520.000,0.300,193.000,0.500,127.000,1.000,15.000,5.000,0
"04/05/08","19:01:54",4152.000,"cc",28334.764,6.00,6,0.100,3203.000,0.200,583.000,0.300,202.000,0.500,140.000,1.000,24.000,5.000,0
"04/05/08","19:02:00",4514.000,"cc",28315.254,6.00,6,0.100,3400.000,0.200,623.000,0.300,291.000,0.500,175.000,1.000,25.000,5.000,0
"04/05/08","19:02:06",3984.000,"cc",28361.629,6.00,6,0.100,3122.000,0.200,532.000,0.300,206.000,0.500,105.000,1.000,19.000,5.000,0
"04/05/08","19:02:12",3498.000,"cc",28333.328,6.00,6,0.100,2782.000,0.200,439.000,0.300,152.000,0.500,107.000,1.000,18.000,5.000,0
"04/05/08","19:02:18",3464.000,"cc",28296.742,6.00,6,0.100,2682.000,0.200,488.000,0.300,164.000,0.500,118.000,1.000,12.000,5.000,0
"04/05/08","19:02:24",3903.000,"cc",28334.371,6.00,6,0.100,3054.000,0.200,528.000,0.300,197.000,0.500,104.000,1.000,20.000,5.000,0
"04/05/08","19:02:30",4413.000,"cc",28346.836,6.00,6,0.100,3389.000,0.200,631.000,0.300,233.000,0.500,139.000,1.000,21.000,5.000,0
"04/05/08","19:02:36",4706.000,"cc",28298.955,6.00,6,0.100,3524.000,0.200,717.000,0.300,279.000,0.500,169.000,1.000,17.000,5.000,0
"04/05/08","19:02:42",5290.000,"cc",28282.506,6.00,6,0.100,3846.000,0.200,838.000,0.300,353.000,0.500,226.000,1.000,27.000,5.000,0
"04/05/08","19:02:48",4815.000,"cc",28352.943,6.00,6,0.100,3706.000,0.200,699.000,0.300,252.000,0.500,140.000,1.000,18.000,5.000,0
"04/05/08","19:02:54",5127.000,"cc",28272.627,6.00,6,0.100,3874.000,0.200,773.000,0.300,280.000,0.500,176.000,1.000,24.000,5.000,0
"04/05/08","19:03:00",4969.000,"cc",28292.984,6.00,6,0.100,3816.000,0.200,754.000,0.300,233.000,0.500,144.000,1.000,22.000,5.000,0
"04/05/08","19:03:06",5171.000,"cc",28348.184,6.00,6,0.100,3975.000,0.200,706.000,0.300,294.000,0.500,165.000,1.000,31.000,5.000,0
"04/05/08","19:03:12",5010.000,"cc",28311.256,6.00,6,0.100,3883.000,0.200,704.000,0.300,249.000,0.500,146.000,1.000,28.000,5.000,0
"04/05/08","19:03:18",5213.000,"cc",28359.941,6.00,6,0.100,4063.000,0.200,760.000,0.300,227.000,0.500,145.000,1.000,18.000,5.000,0
"04/05/08","19:03:24",5198.000,"cc",28277.930,6.00,6,0.100,4137.000,0.200,724.000,0.300,191.000,0.500,126.000,1.000,20.000,5.000,0
"04/05/08","19:03:30",5170.000,"cc",28311.922,6.00,6,0.100,4125.000,0.200,644.000,0.300,226.000,0.500,155.000,1.000,20.000,5.000,0
"04/05/08","19:03:36",5385.000,"cc",28313.902,6.00,6,0.100,4206.000,0.200,727.000,0.300,275.000,0.500,148.000,1.000,29.000,5.000,0
"04/05/08","19:03:42",4816.000,"cc",28332.236,6.00,6,0.100,3800.000,0.200,653.000,0.300,216.000,0.500,133.000,1.000,14.000,5.000,0
"04/05/08","19:03:48",4757.000,"cc",28372.127,6.00,6,0.100,3742.000,0.200,651.000,0.300,221.000,0.500,121.000,1.000,22.000,5.000,0
"04/05/08","19:03:54",4495.000,"cc",28354.434,6.00,6,0.100,3549.000,0.200,608.000,0.300,200.000,0.500,122.000,1.000,16.000,5.000,0
"04/05/08","19:04:00",4828.000,"cc",28274.539,6.00,6,0.100,3784.000,0.200,700.000,0.300,205.000,0.500,121.000,1.000,18.000,5.000,0
"04/05/08","19:04:06",5216.000,"cc",28259.695,6.00,6,0.100,4130.000,0.200,705.000,0.300,234.000,0.500,122.000,1.000,25.000,5.000,0
"04/05/08","19:04:12",5479.000,"cc",28328.492,6.00,6,0.100,4274.000,0.200,806.000,0.300,236.000,0.500,142.000,1.000,21.000,5.000,0
"04/05/08","19:04:18",5969.000,"cc",28296.914,6.00,6,0.100,4609.000,0.200,845.000,0.300,310.000,0.500,174.000,1.000,31.000,5.000,0
"04/05/08","19:04:24",5562.000,"cc",28351.861,6.00,6,0.100,4357.000,0.200,780.000,0.300,260.000,0.500,139.000,1.000,26.000,5.000,0
"04/05/08","19:04:30",5751.000,"cc",28354.820,6.00,6,0.100,4652.000,0.200,752.000,0.300,213.000,0.500,117.000,1.000,17.000,5.000,0
"04/05/08","19:04:36",5983.000,"cc",28343.311,6.00,6,0.100,4789.000,0.200,814.000,0.300,237.000,0.500,128.000,1.000,15.000,5.000,0
"04/05/08","19:04:42",6007.000,"cc",28275.918,6.00,6,0.100,4853.000,0.200,793.000,0.300,210.000,0.500,129.000,1.000,22.000,5.000,0
"04/05/08","19:04:48",6291.000,"cc",28323.160,6.00,6,0.100,5072.000,0.200,835.000,0.300,227.000,0.500,132.000,1.000,25.000,5.000,0
"04/05/08","19:04:54",6329.000,"cc",28299.887,6.00,6,0.100,5155.000,0.200,836.000,0.300,199.000,0.500,118.000,1.000,21.000,5.000,0
"04/05/08","19:05:00",6470.000,"cc",28289.014,6.00,6,0.100,5260.000,0.200,809.000,0.300,240.000,0.500,136.000,1.000,25.000,5.000,0
"04/05/08","19:05:06",6505.000,"cc",28321.748,6.00,6,0.100,5242.000,0.200,862.000,0.300,237.000,0.500,134.000,1.000,30.000,5.000,0
"04/05/08","19:05:12",6493.000,"cc",28347.586,6.00,6,0.100,5173.000,0.200,904.000,0.300,241.000,0.500,154.000,1.000,21.000,5.000,0
"04/05/08","19:05:18",6669.000,"cc",28312.604,6.00,6,0.100,5234.000,0.200,954.000,0.300,298.000,0.500,161.000,1.000,22.000,5.000,0
"04/05/08","19:05:24",6723.000,"cc",28380.961,6.00,6,0.100,5351.000,0.200,894.000,0.300,286.000,0.500,163.000,1.000,29.000,5.000,0
"04/05/08","19:05:30",6806.000,"cc",28320.035,6.00,6,0.100,5274.000,0.200,988.000,0.300,318.000,0.500,195.000,1.000,31.000,5.000,0
"04/05/08","19:05:36",7014.000,"cc",28296.752,6.00,6,0.100,5400.000,0.200,1023.000,0.300,358.000,0.500,196.000,1.000,37.000,5.000,0
"04/05/08","19:05:42",6507.000,"cc",28259.268,6.00,6,0.100,5129.000,0.200,903.000,0.300,293.000,0.500,161.000,1.000,21.000,5.000,0
"04/05/08","19:05:48",6681.000,"cc",28357.438,6.00,6,0.100,5224.000,0.200,920.000,0.300,313.000,0.500,194.000,1.000,30.000,5.000,0
"04/05/08","19:05:54",7459.000,"cc",28328.748,6.00,6,0.100,5682.000,0.200,1149.000,0.300,404.000,0.500,192.000,1.000,32.000,5.000,0
"04/05/08","19:06:00",7759.000,"cc",28278.543,6.00,6,0.100,5890.000,0.200,1145.000,0.300,449.000,0.500,234.000,1.000,41.000,5.000,0
"04/05/08","19:06:06",8394.000,"cc",28272.572,6.00,6,0.100,6285.000,0.200,1313.000,0.300,497.000,0.500,258.000,1.000,41.000,5.000,0
"04/05/08","19:06:12",7635.000,"cc",28335.867,6.00,6,0.100,5915.000,0.200,1134.000,0.300,355.000,0.500,199.000,1.000,32.000,5.000,0
"04/05/08","19:06:18",8285.000,"cc",28385.316,6.00,6,0.100,6297.000,0.200,1268.000,0.300,440.000,0.500,248.000,1.000,32.000,5.000,0
"04/05/08","19:06:24",7912.000,"cc",28231.191,6.00,6,0.100,6246.000,0.200,1161.000,0.300,319.000,0.500,152.000,1.000,34.000,5.000,0
"04/05/08","19:06:30",7942.000,"cc",28359.422,6.00,6,0.100,6366.000,0.200,1131.000,0.300,276.000,0.500,141.000,1.000,28.000,5.000,0
"04/05/08","19:06:36",7882.000,"cc",28321.658,6.00,6,0.100,6442.000,0.200,1043.000,0.300,249.000,0.500,129.000,1.000,19.000,5.000,0
"04/05/08","19:06:42",8252.000,"cc",28297.533,6.00,6,0.100,6712.000,0.200,1098.000,0.300,274.000,0.500,137.000,1.000,31.000,5.000,0
"04/05/08","19:06:48",8147.000,"cc",28302.596,6.00,6,0.100,6644.000,0.200,1100.000,0.300,252.000,0.500,127.000,1.000,24.000,5.000,0
"04/05/08","19:06:54",8834.000,"cc",28340.629,6.00,6,0.100,7062.000,0.200,1205.000,0.300,345.000,0.500,192.000,1.000,30.000,5.000,0
"04/05/08","19:07:00",9822.000,"cc",28291.822,6.00,6,0.100,7573.000,0.200,1457.000,0.300,498.000,0.500,247.000,1.000,47.000,5.000,0
"04/05/08","19:07:06",9521.000,"cc",28382.260,6.00,6,0.100,7490.000,0.200,1376.000,0.300,418.000,0.500,197.000,1.000,40.000,5.000,0
"04/05/08","19:07:12",9412.000,"cc",28326.371,6.00,6,0.100,7337.000,0.200,1424.000,0.300,403.000,0.500,220.000,1.000,28.000,5.000,0
"04/05/08","19:07:18",9841.000,"cc",28314.791,6.00,6,0.100,7719.000,0.200,1455.000,0.300,420.000,0.500,214.000,1.000,33.000,5.000,0
"04/05/08","19:07:24",9699.000,"cc",28315.955,6.00,6,0.100,7553.000,0.200,1432.000,0.300,440.000,0.500,239.000,1.000,35.000,5.000,0
"04/05/08","19:07:30",10379.000,"cc",28286.270,6.00,6,0.100,7831.000,0.200,1607.000,0.300,552.000,0.500,344.000,1.000,45.000,5.000,0
"04/05/08","19:07:36",10593.000,"cc",28295.465,6.00,6,0.100,8206.000,0.200,1524.000,0.300,534.000,0.500,293.000,1.000,36.000,5.000,0
"04/05/08","19:07:42",11572.000,"cc",28268.543,6.00,6,0.100,8634.000,0.200,1851.000,0.300,671.000,0.500,371.000,1.000,45.000,5.000,0
"04/05/08","19:07:48",11571.000,"cc",28325.752,6.00,6,0.100,8702.000,0.200,1814.000,0.300,622.000,0.500,386.000,1.000,47.000,5.000,0
"04/05/08","19:07:54",12896.000,"cc",28376.016,6.00,6,0.100,9554.000,0.200,1988.000,0.300,832.000,0.500,444.000,1.000,78.000,5.000,0
"04/05/08","19:08:00",12366.000,"cc",28317.231,6.00,6,0.100,9441.000,0.200,1856.000,0.300,654.000,0.500,351.000,1.000,64.000,5.000,0
"04/05/08","19:08:06",12257.000,"cc",28294.508,6.00,6,0.100,9472.000,0.200,1814.000,0.300,601.000,0.500,310.000,1.000,60.000,5.000,0
"04/05/08","19:08:12",11600.000,"cc",28357.455,6.00,6,0.100,9137.000,0.200,1641.000,0.300,508.000,0.500,266.000,1.000,48.000,5.000,0
"04/05/08","19:08:18",12348.000,"cc",28295.844,6.00,6,0.100,9316.000,0.200,1919.000,0.300,688.000,0.500,355.000,1.000,70.000,5.000,0
"04/05/08","19:08:24",12850.000,"cc",28322.945,6.00,6,0.100,9573.000,0.200,2007.000,0.300,766.000,0.500,437.000,1.000,67.000,5.000,0
"04/05/08","19:08:30",11668.000,"cc",28316.930,6.00,6,0.100,8960.000,0.200,1761.000,0.300,587.000,0.500,315.000,1.000,45.000,5.000,0
"04/05/08","19:08:36",11396.000,"cc",28275.818,6.00,6,0.100,8829.000,0.200,1697.000,0.300,551.000,0.500,281.000,1.000,38.000,5.000,0
"04/05/08","19:08:42",11187.000,"cc",28332.967,6.00,6,0.100,8667.000,0.200,1709.000,0.300,486.000,0.500,277.000,1.000,48.000,5.000,0
"04/05/08","19:08:48",13009.000,"cc",28343.063,6.00,6,0.100,9805.000,0.200,2046.000,0.300,708.000,0.500,399.000,1.000,51.000,5.000,0
"04/05/08","19:08:54",12607.000,"cc",28293.315,6.00,6,0.100,9629.000,0.200,1892.000,0.300,674.000,0.500,358.000,1.000,54.000,5.000,0
"04/05/08","19:09:00",12402.000,"cc",28365.065,6.00,6,0.100,9459.000,0.200,1947.000,0.300,612.000,0.500,322.000,1.000,62.000,5.000,0
"04/05/08","19:09:06",11970.000,"cc",28302.232,6.00,6,0.100,9425.000,0.200,1778.000,0.300,482.000,0.500,250.000,1.000,35.000,5.000,0
"04/05/08","19:09:12",13388.000,"cc",28300.594,6.00,6,0.100,10256.000,0.200,2056.000,0.300,659.000,0.500,353.000,1.000,64.000,5.000,0
"04/05/08","19:09:18",12975.000,"cc",28288.549,6.00,6,0.100,10240.000,0.200,1902.000,0.300,541.000,0.500,254.000,1.000,38.000,5.000,0
"04/05/08","19:09:24",13232.000,"cc",28308.920,6.00,6,0.100,10248.000,0.200,1989.000,0.300,603.000,0.500,333.000,1.000,59.000,5.000,0
"04/05/08","19:09:30",11820.000,"cc",28354.887,6.00,6,0.100,9555.000,0.200,1633.000,0.300,414.000,0.500,188.000,1.000,30.000,5.000,0
"04/05/08","19:09:36",12842.000,"cc",28352.440,6.00,6,0.100,9988.000,0.200,1872.000,0.300,594.000,0.500,323.000,1.000,65.000,5.000,0
"04/05/08","19:09:42",12311.000,"cc",28264.225,6.00,6,0.100,9836.000,0.200,1736.000,0.300,468.000,0.500,238.000,1.000,33.000,5.000,0
"04/05/08","19:09:48",12312.000,"cc",28282.869,6.00,6,0.100,9743.000,0.200,1754.000,0.300,517.000,0.500,263.000,1.000,35.000,5.000,0
"04/05/08","19:09:54",12914.000,"cc",28338.133,6.00,6,0.100,10201.000,0.200,1848.000,0.300,526.000,0.500,299.000,1.000,40.000,5.000,0
"04/05/08","19:10:00",12378.000,"cc",28360.039,6.00,6,0.100,9907.000,0.200,1756.000,0.300,423.000,0.500,243.000,1.000,49.000,5.000,0
"04/05/08","19:10:06",13337.000,"cc",28278.221,6.00,6,0.100,10310.000,0.200,2009.000,0.300,620.000,0.500,345.000,1.000,53.000,5.000,0
"04/05/08","19:10:12",13733.000,"cc",28298.539,6.00,6,0.100,10790.000,0.200,2015.000,0.300,556.000,0.500,331.000,1.000,41.000,5.000,0
"04/05/08","19:10:18",13824.000,"cc",28265.830,6.00,6,0.100,11233.000,0.200,1843.000,0.300,467.000,0.500,251.000,1.000,30.000,5.000,0
"04/05/08","19:10:24",13789.000,"cc",28323.100,6.00,6,0.100,11083.000,0.200,1889.000,0.300,517.000,0.500,255.000,1.000,45.000,5.000,0
"04/05/08","19:10:30",14455.000,"cc",28328.289,6.00,6,0.100,11920.000,0.200,1881.000,0.300,418.000,0.500,209.000,1.000,27.000,5.000,0
"04/05/08","19:10:36",14726.000,"cc",28320.893,6.00,6,0.100,12263.000,0.200,1929.000,0.300,332.000,0.500,164.000,1.000,38.000,5.000,0
"04/05/08","19:10:42",15223.000,"cc",28291.541,6.00,6,0.100,12587.000,0.200,2036.000,0.300,358.000,0.500,205.000,1.000,37.000,5.000,0
"04/05/08","19:10:48",15774.000,"cc",28250.395,6.00,6,0.100,12859.000,0.200,2188.000,0.300,453.000,0.500,239.000,1.000,35.000,5.000,0
"04/05/08","19:10:54",16638.000,"cc",28363.121,6.00,6,0.100,13307.000,0.200,2436.000,0.300,574.000,0.500,278.000,1.000,43.000,5.000,0
"04/05/08","19:11:00",17410.000,"cc",28381.166,6.00,6,0.100,13627.000,0.200,2522.000,0.300,781.000,0.500,397.000,1.000,83.000,5.000,0
"04/05/08","19:11:06",18062.000,"cc",28303.734,6.00,6,0.100,14420.000,0.200,2534.000,0.300,690.000,0.500,350.000,1.000,68.000,5.000,0
"04/05/08","19:11:12",18669.000,"cc",28354.760,6.00,6,0.100,14398.000,0.200,2833.000,0.300,884.000,0.500,476.000,1.000,78.000,5.000,0
"04/05/08","19:11:18",18320.000,"cc",28269.223,6.00,6,0.100,14612.000,0.200,2610.000,0.300,676.000,0.500,371.000,1.000,51.000,5.000,0
"04/05/08","19:11:24",17882.000,"cc",28326.619,6.00,6,0.100,14452.000,0.200,2498.000,0.300,575.000,0.500,302.000,1.000,55.000,5.000,0
"04/05/08","19:11:30",16748.000,"cc",28313.318,6.00,6,0.100,13656.000,0.200,2310.000,0.300,508.000,0.500,237.000,1.000,37.000,5.000,0
"04/05/08","19:11:36",17295.000,"cc",28294.922,6.00,6,0.100,14009.000,0.200,2422.000,0.300,530.000,0.500,285.000,1.000,49.000,5.000,0
"04/05/08","19:11:42",17413.000,"cc",28363.002,6.00,6,0.100,14056.000,0.200,2432.000,0.300,566.000,0.500,306.000,1.000,53.000,5.000,0
"04/05/08","19:11:48",18592.000,"cc",28317.455,6.00,6,0.100,14748.000,0.200,2686.000,0.300,729.000,0.500,370.000,1.000,59.000,5.000,0
"04/05/08","19:11:54",18532.000,"cc",28297.107,6.00,6,0.100,14568.000,0.200,2687.000,0.300,822.000,0.500,396.000,1.000,59.000,5.000,0
"04/05/08","19:12:00",17985.000,"cc",28288.852,6.00,6,0.100,14098.000,0.200,2704.000,0.300,735.000,0.500,387.000,1.000,61.000,5.000,0
"04/05/08","19:12:06",17425.000,"cc",28334.639,6.00,6,0.100,13711.000,0.200,2523.000,0.300,747.000,0.500,401.000,1.000,43.000,5.000,0
"04/05/08","19:12:12",16058.000,"cc",28365.160,6.00,6,0.100,12515.000,0.200,2331.000,0.300,753.000,0.500,389.000,1.000,70.000,5.000,0
"04/05/08","19:12:18",17829.000,"cc",28245.453,6.00,6,0.100,13628.000,0.200,2817.000,0.300,873.000,0.500,425.000,1.000,86.000,5.000,0
"04/05/08","19:12:24",18342.000,"cc",28330.906,6.00,6,0.100,14002.000,0.200,2844.000,0.300,879.000,0.500,527.000,1.000,90.000,5.000,0
"04/05/08","19:12:30",18607.000,"cc",28275.621,6.00,6,0.100,14453.000,0.200,2731.000,0.300,879.000,0.500,447.000,1.000,97.000,5.000,0
"04/05/08","19:12:36",18875.000,"cc",28315.459,6.00,6,0.100,14247.000,0.200,2998.000,0.300,1019.000,0.500,535.000,1.000,76.000,5.000,0
"04/05/08","19:12:42",19020.000,"cc",28376.756,6.00,6,0.100,14373.000,0.200,3092.000,0.300,1016.000,0.500,458.000,1.000,81.000,5.000,0
"04/05/08","19:12:48",17997.000,"cc",28298.301,6.00,6,0.100,13981.000,0.200,2669.000,0.300,858.000,0.500,417.000,1.000,72.000,5.000,0
"04/05/08","19:12:54",16031.000,"cc",28330.953,6.00,6,0.100,13248.000,0.200,2093.000,0.300,454.000,0.500,206.000,1.000,30.000,5.000,0
"04/05/08","19:13:00",19336.000,"cc",28309.811,6.00,6,0.100,15013.000,0.200,2913.000,0.300,893.000,0.500,434.000,1.000,83.000,5.000,0
"04/05/08","19:13:06",19479.000,"cc",28409.008,6.00,6,0.100,15047.000,0.200,2967.000,0.300,923.000,0.500,466.000,1.000,76.000,5.000,0
"04/05/08","19:13:12",19354.000,"cc",28253.086,6.00,6,0.100,15033.000,0.200,2971.000,0.300,893.000,0.500,395.000,1.000,62.000,5.000,0
"04/05/08","19:13:18",18999.000,"cc",28293.981,6.00,6,0.100,15011.000,0.200,2761.000,0.300,796.000,0.500,370.000,1.000,61.000,5.000,0
"04/05/08","19:13:24",18859.000,"cc",28348.121,6.00,6,0.100,14982.000,0.200,2723.000,0.300,686.000,0.500,402.000,1.000,66.000,5.000,0
"04/05/08","19:13:30",19805.000,"cc",28317.803,6.00,6,0.100,15789.000,0.200,2852.000,0.300,774.000,0.500,344.000,1.000,46.000,5.000,0
"04/05/08","19:13:36",20012.000,"cc",28319.402,6.00,6,0.100,16034.000,0.200,2825.000,0.300,729.000,0.500,355.000,1.000,69.000,5.000,0
"04/05/08","19:13:42",20173.000,"cc",28298.916,6.00,6,0.100,15976.000,0.200,2985.000,0.300,778.000,0.500,381.000,1.000,53.000,5.000,0
"04/05/08","19:13:48",19848.000,"cc",28335.902,6.00,6,0.100,16049.000,0.200,2719.000,0.300,698.000,0.500,321.000,1.000,61.000,5.000,0
"04/05/08","19:13:54",19849.000,"cc",28337.461,6.00,6,0.100,16218.000,0.200,2746.000,0.300,589.000,0.500,252.000,1.000,44.000,5.000,0
"04/05/08","19:14:00",20764.000,"cc",28304.889,6.00,6,0.100,16840.000,0.200,2954.000,0.300,633.000,0.500,294.000,1.000,43.000,5.000,0
"04/05/08","19:14:06",21941.000,"cc",28252.596,6.00,6,0.100,17487.000,0.200,3108.000,0.300,840.000,0.500,421.000,1.000,85.000,5.000,0
"04/05/08","19:14:12",23909.000,"cc",28373.578,6.00,6,0.100,18644.000,0.200,3579.000,0.300,1074.000,0.500,534.000,1.000,78.000,5.000,0
"04/05/08","19:14:18",23700.000,"cc",28293.867,6.00,6,0.100,18538.000,0.200,3544.000,0.300,1015.000,0.500,512.000,1.000,91.000,5.000,0
"04/05/08","19:14:24",23834.000,"cc",28251.781,6.00,6,0.100,18681.000,0.200,3572.000,0.300,1029.000,0.500,477.000,1.000,75.000,5.000,0
"04/05/08","19:14:30",23352.000,"cc",28328.197,6.00,6,0.100,18062.000,0.200,3610.000,0.300,1085.000,0.500,508.000,1.000,87.000,5.000,0
"04/05/08","19:14:36",21575.000,"cc",28330.994,6.00,6,0.100,17179.000,0.200,3145.000,0.300,819.000,0.500,379.000,1.000,53.000,5.000,0
"04/05/08","19:14:42",21143.000,"cc",28316.736,6.00,6,0.100,16818.000,0.200,3084.000,0.300,776.000,0.500,399.000,1.000,66.000,5.000,0
"04/05/08","19:14:48",19481.000,"cc",28331.211,6.00,6,0.100,16008.000,0.200,2628.000,0.300,520.000,0.500,261.000,1.000,64.000,5.000,0
"04/05/08","19:14:54",20093.000,"cc",28284.404,6.00,6,0.100,16429.000,0.200,2725.000,0.300,607.000,0.500,287.000,1.000,45.000,5.000,0
"04/05/08","19:15:00",19918.000,"cc",28412.490,6.00,6,0.100,16263.000,0.200,2750.000,0.300,603.000,0.500,247.000,1.000,55.000,5.000,0
"04/05/08","19:15:06",20172.000,"cc",28343.822,6.00,6,0.100,16375.000,0.200,2803.000,0.300,663.000,0.500,288.000,1.000,43.000,5.000,0
"04/05/08","19:15:12",20132.000,"cc",28304.059,6.00,6,0.100,16265.000,0.200,2888.000,0.300,612.000,0.500,313.000,1.000,54.000,5.000,0
"04/05/08","19:15:18",20437.000,"cc",28273.123,6.00,6,0.100,16441.000,0.200,2877.000,0.300,708.000,0.500,341.000,1.000,70.000,5.000,0
"04/05/08","19:15:24",19803.000,"cc",28304.744,6.00,6,0.100,16406.000,0.200,2666.000,0.300,499.000,0.500,202.000,1.000,30.000,5.000,0
"04/05/08","19:15:30",19968.000,"cc",28306.922,6.00,6,0.100,16502.000,0.200,2713.000,0.300,508.000,0.500,214.000,1.000,31.000,5.000,0
"04/05/08","19:15:36",20103.000,"cc",28304.516,6.00,6,0.100,16674.000,0.200,2729.000,0.300,464.000,0.500,198.000,1.000,38.000,5.000,0
"04/05/08","19:15:42",21347.000,"cc",28276.264,6.00,6,0.100,17477.000,0.200,2929.000,0.300,611.000,0.500,287.000,1.000,43.000,5.000,0
"04/05/08","19:15:48",20957.000,"cc",28315.785,6.00,6,0.100,17375.000,0.200,2776.000,0.300,571.000,0.500,210.000,1.000,25.000,5.000,0
"04/05/08","19:15:54",20588.000,"cc",28346.209,6.00,6,0.100,17152.000,0.200,2754.000,0.300,474.000,0.500,181.000,1.000,27.000,5.000,0
"04/05/08","19:16:00",21728.000,"cc",28315.990,6.00,6,0.100,17589.000,0.200,3075.000,0.300,707.000,0.500,308.000,1.000,49.000,5.000,0
"04/05/08","19:16:06",22087.000,"cc",28303.893,6.00,6,0.100,17897.000,0.200,3064.000,0.300,710.000,0.500,354.000,1.000,62.000,5.000,0
"04/05/08","19:16:12",20626.000,"cc",28313.813,6.00,6,0.100,17141.000,0.200,2717.000,0.300,526.000,0.500,216.000,1.000,26.000,5.000,0
"04/05/08","19:16:18",21448.000,"cc",28323.291,6.00,6,0.100,17479.000,0.200,2992.000,0.300,632.000,0.500,299.000,1.000,46.000,5.000,0
"04/05/08","19:16:24",21460.000,"cc",28291.443,6.00,6,0.100,17561.000,0.200,2943.000,0.300,637.000,0.500,270.000,1.000,49.000,5.000,0
"04/05/08","19:16:30",21190.000,"cc",28316.264,6.00,6,0.100,17291.000,0.200,2918.000,0.300,638.000,0.500,296.000,1.000,47.000,5.000,0
"04/05/08","19:16:36",20585.000,"cc",28322.445,6.00,6,0.100,17077.000,0.200,2755.000,0.300,512.000,0.500,207.000,1.000,33.000,5.000,1.000
"04/05/08","19:16:42",21247.000,"cc",28347.977,6.00,6,0.100,17477.000,0.200,2897.000,0.300,568.000,0.500,266.000,1.000,39.000,5.000,0
"04/05/08","19:16:48",20990.000,"cc",28341.168,6.00,6,0.100,17363.000,0.200,2855.000,0.300,526.000,0.500,207.000,1.000,39.000,5.000,0
"04/05/08","19:16:54",20568.000,"cc",28294.447,6.00,6,0.100,17181.000,0.200,2722.000,0.300,429.000,0.500,202.000,1.000,34.000,5.000,0